Regional Weather Roundup
Issued by NWS Wakefield, VA

Home | Current Version | Previous Version | Text Only | Print | Product List | Glossary On
Versions: 1 2 3 4 5 6 7 8 9 10 11 12 13 14 15 16 17 18 19 20 21 22 23 24 25 26 27 28 29 30 31 32 33 34 35 36 37 38 39 40 41 42 43 44 45 46 47 48 49 50
000
ASUS41 KAKQ 231414
RWRAKQ

REGIONAL WEATHER ROUNDUP
NATIONAL WEATHER SERVICE WAKEFIELD VA
1000 AM EDT SAT MAY 23 2015

Note: "fair" indicates few or no clouds below 12,000 feet with no
significant weather and/or obstructions to visibility. * = Denotes
station may not report precipitation (e.g., rain,snow,etc.),
thunder or fog.

VAZ042-051-052>054-056-231500-
NORTHERN VIRGINIA

CITY           SKY/WX    TMP DP  RH WIND       PRES   REMARKS
WASH NATIONAL  MOSUNNY   64  29  26 N6        30.48R
DULLES         MOSUNNY   61  27  27 VRB3      30.48R
FORT BELVOIR   SUNNY     62  27  25 N7        30.48R
QUANTICO       SUNNY     62  31  31 E10       30.49R
FREDERICKSBRG* SUNNY     64  33  32 NE6       30.47S
STAFFORD*      SUNNY     62  28  27 NE6       30.52R
WARRENTON      SUNNY     63  33  33 N6        30.47S
CULPEPER*      SUNNY     61  32  33 N5        30.49R
MANASSAS*      SUNNY     61  27  27 N7        30.48R
LEESBURG*      SUNNY     61  32  33 NE3       30.49R
WINCHESTER     SUNNY     61  12  15 E3        30.46R
FRONT ROYAL*   FAIR      59  37  44 CALM      30.46R
LURAY*         FAIR      63  36  36 S3        30.46S
$$

VAZ048-049-060>072-079>083-231500-
CENTRAL AND SOUTH CENTRAL VIRGINIA

CITY           SKY/WX    TMP DP  RH WIND       PRES   REMARKS
RICHMOND       MOSUNNY   65  32  29 NE8G16    30.47R
CHESTERFIELD*  NOT AVBL
PETERSBURG*    SUNNY     66  30  25 NE10      30.48R
HANOVER        SUNNY     63  33  32 VRB6      30.49R
TAPPAHANNOCK*  SUNNY     64  22  19 NE7       30.48R
QUINTON*       FAIR      62  38  42 NE6       30.47R
CHARLOTTSVILLE SUNNY     62  32  32 NE3       30.47R
GORDONSVILLE*  FAIR      61  30  31 NE9       30.48R
ORANGE*        SUNNY     63  32  31 N5        30.49R
LOUISA*        SUNNY     63  34  34 E5        30.47R
BUMPASS*       FAIR      61  33  34 N7        30.48R
FARMVILLE*     SUNNY     64  34  32 NE8       30.46S
CREWE*         FAIR      62  34  34 N6        30.47S
FORT PICKETT*  FAIR      63  37  39 NE8       30.47R
CHASE CITY*    FAIR      64  39  39 NE7       30.47R
CLARKSVILLE*   FAIR      63  39  42 NE5       30.47R
SOUTH HILL*    MOSUNNY   63  37  38 CALM      30.52R
LAWRENCEVILLE* FAIR      64  36  34 E5        30.46R
EMPORIA*       SUNNY     64  37  36 N5        30.47S
$$

VAZ088>098-231500-
SOUTHEAST VIRGINIA

CITY           SKY/WX    TMP DP  RH WIND       PRES   REMARKS
NORFOLK        SUNNY     67  42  40 NE14      30.44R
VIRGINIA BEACH MOSUNNY   68  42  38 NE12      30.44R
NORFOLK NAVAL  MOSUNNY   71  44  37 NE15      30.46R
WEST POINT*    SUNNY     66  24  20 N7        30.48R
SALUDA*        FAIR      62  40  44 N9G16     30.46R
NEWPORT NEWS   SUNNY     71  43  36 N8        30.45R
LANGLEY AFB    SUNNY     67  43  42 NE10      30.44R
FORT EUSTIS    SUNNY     66  38  36 NE6       30.44R
WILLIAMSBURG*  SUNNY     70  39  32 CALM      30.47R
HR EXEC AP*    FAIR      70  48  46 NE9G16    30.45R
FRANKLIN*      SUNNY     67  44  43 N9        30.45R
WAKEFIELD      SUNNY     67  38  34 VRB7      30.45R
$$

VAZ020-022-025-037-045-231500-
WEST CENTRAL AND SOUTHWEST VIRGINIA

CITY           SKY/WX    TMP DP  RH WIND       PRES   REMARKS
STAUNTON*      MOSUNNY   60  33  37 CALM      30.49S
WAYNESBORO*    FAIR      58  31  36 N5        30.47S
HOT SPRINGS VA MOSUNNY   55  42  63 W3        30.47R
LYNCHBURG      SUNNY     61  35  37 NE7       30.49R
DANVILLE       SUNNY     65  41  41 E8        30.47R
SOUTH BOSTON*  FAIR      64  38  38 E6        30.47S
MARTINSVILLE   SUNNY     67  47  48 SE8       30.48S
ROANOKE        MOSUNNY   63  47  55 SE7       30.48R
BLACKSBURG     MOSUNNY   58  48  67 CALM      30.49S
DUBLIN*        MOSUNNY   61  47  59 CALM      30.48S
MARION*        SUNNY     65  45  47 E5        30.50R
HILLSVILLE*    SUNNY     60  46  58 CALM      30.48R
RICHLANDS*     FAIR      62  46  55 SE3       30.46S
WISE*          MOSUNNY   64  41  42 E5        30.47S
ABINGDON*      SUNNY     66  42  40 SE9       30.44S
$$

MDZ021>025-VAZ099-100-231500-
SOUTHERN MARYLAND AND THE DELMARVA PENINSULA

CITY           SKY/WX    TMP DP  RH WIND       PRES   REMARKS
PATUXENT RIVER MOSUNNY   63  31  30 N12       30.47R
BAY BRIDGE APT   N/A    N/A N/A N/A N5        30.48R
LEONARDTOWN    SUNNY     61  27  27 NE5       30.48S
DOVER          SUNNY     59  39  48 N9        30.42R
GEORGETOWN     SUNNY     61  34  36 NE8       30.45R
EASTON         MOSUNNY   61  32  33 N9        30.49R
CAMBRIDGE      SUNNY     63  28  27 N6        30.46R
SALISBURY      SUNNY     62  33  33 N7        30.45R
OCEAN CITY     SUNNY     60  42  51 E10       30.45R
WALLOPS ISLAND SUNNY     63  35  35 NE7       30.46R
ACCOMACK*      SUNNY     63  -9   5 N6        30.45S
$$

NCZ012>017-030>032-231500-
NORTH CENTRAL AND EASTERN NORTH CAROLINA

CITY           SKY/WX    TMP DP  RH WIND       PRES   REMARKS
ROANOKE RAPIDS FAIR      64  43  45 NE9       30.45R
RALEIGH        MOSUNNY   67  47  48 NE7       30.45R
ELIZABETH CITY SUNNY     69  45  41 NE15      30.43R
AHOSKIE*       SUNNY     67  46  46 NE9       30.44
EDENTON*       SUNNY     68  51  54 NE9       30.43R
CURRITUCK*     SUNNY     68  36  31 NE14      30.44R
KILL DEVIL HLS SUNNY     66  51  58 NE8G17    30.41R
MANTEO         SUNNY     67  50  55 NE15      30.42R
CAPE HATTERAS  SUNNY     72  52  49 VRB7G18   30.41R
TARBORO*       FAIR      70  49  47 NE10      30.45R
GOLDSBORO      NOT AVBL
WASHINGTON     SUNNY     69  53  57 NE9       30.42S
GREENVILLE     SUNNY     70  52  52 NE12      30.42S
NEW BERN       SUNNY     72  51  47 N8        30.42R
WILMINGTON     SUNNY     73  51  46 NE7       30.40R
$$

VAZ048-231500-
ELSEWHERE

CITY           SKY/WX    TMP DP  RH WIND       PRES   REMARKS
HARRISBURG PA  MOSUNNY   56  28  34 W7        30.45S
BALTIMORE      MOSUNNY   61  26  26 N7        30.46R
ANNAPOLIS      SUNNY     60  26  27 NW7       30.47R
ANDREWS AFB    SUNNY     61  28  29 N6        30.46R
PHILADELPHIA   MOSUNNY   57  25  29 N12       30.46R
HENDERSON NC   SUNNY     64  38  37 NE8       30.47R
GREENSBORO     MOSUNNY   69  47  45 E10       30.45R
ROCKY MOUNT    MOSUNNY   69  45  41 NE10      30.44R
$$

VAZ100-231500-
MARINE

STATION/POSITION TIME  TEMP    WIND        PRES    WAVE   SWELL
                       AIR SEA DIR/SP/G            HT/PER HT/PER
                 (UTC) (F)     (DEG/KT/KT) (MB)    (FT/S) (FT/S)
BRANDYWINE LGT   1300   54 62   30/ 12/ 14 1030.6R
CAPE MAY NJ      1300   57 67   10/  4/  7 1030.1R
LEWES DE         1300   56 62   40/ 11/ 14 1030.5R
15NM E FENWICK I 1350   56 59              1030.7R   3/ 4
OCEAN-CITY-INLET 1300   59 62   70/  7/ 10 1030.4R
WACHAPREAGUE VA  1300   62 66  360/  3/  6 1031.0R
THOMAS POINT MD  1400   59 64   30/ 10/ 11 1032.5R
GOOSES REEF MD   1400   58 64   30/ 12/ 14 1032.7R   2/ 3
SOLOMONS ISLAND  1300      67                N/A
BISHOPS HEAD MD  1300   61 64   20/  8/ 12 1030.6R
PINEY POINT MD   1300           20/  9/ 11   N/A
CAMBRIDGE MD     1300   58 68  350/ 10/ 13 1030.8R
LEWISETTA VA     1300   60 68              1031.0R
RAPPAHANNOCK LGT 1300           20/ 14/ 15 1031.3R
STINGRAY PT      1400   62 69   20/ 12/ 14 1031.1R   2/ 3
YORK RVR RNG VA  1300   62      20/ 10/ 12 1030.1R
YORKTOWN VA      1300   63 70   30/ 10/ 12 1030.5R
JAMESTOWN VA     1400   63 73   40/  6/  8 1030.5R
DOMINION TERM VA 1300   66      40/  4/ 11 1030.6R
KIPTOPEKE VA     1300      71   60/  7/ 15   N/A
CHES BAY BRIDGE  1300   63 67   20/ 16/ 19 1029.8R
CAPE HENRY VA    1300   63      20/ 19/ 21 1028.9R
CHESAPEAKE LGHT  1300   61      20/ 21/ 23 1030.1R
WILLOUBY STN VA  1300   64      50/ 14/ 16 1031.0R
CAPE HENRY BUOY  1328      62                N/A     3/ 4
1ST LANDING BUOY 1400      66              1030.4R
CAPE CHARLES BUO 1326      64                N/A     3/ 4   2/ 8
OFFSHORE WE BUOY 1311      60                N/A     2/ 3   2/ 8
64NM E OF VA BCH 1350   61 60   20/ 12/ 14 1029.8R   2/ 9   2/ 9
DUCK PIER NC     1300   63 64   30/ 15/ 17 1028.7R
44100 DUCK FRF   1324      61                N/A     2/ 9
44056 DUCK FRF   1311      64                N/A     2/ 9
OREGON INLET NC  1300   66 68  360/  9/ 11 1029.2R
HATTERAS NC      1300   71 71  340/  7/  9 1028.4R
DIAMOND SHLS NC  1350   71 77  360/ 12/ 14 1028.9R   3/ 9   3/ 9
CAPE LOOKOUT NC  1400   71     360/  7/  9 1029.1R
$$



USA.gov is the U.S. government's official web portal to all federal, state and local government web resources and services.